UAL905 EGLL-KEWR

Flight info

Callsign UAL905
Flight time N/A
Altitude 38000
Route CPT DCT DIDZA L9 OKSAW DCT BIBPE DCT BUCGO DCT FELCA DCT OFSOX DCT BANBA DCT LODLA DCT ADARA/M083F380 DCT 52N020W 52N030W 5130N04000W 49N050W DCT JOOPY/N0469F380 N328A TUSKY Q475 COPLY DCT BOS DCT NELIE FLOSI4
Aircraft B772/H-SDE2E3FGHIJ5LORVWXY/LB1D1

Departure

Time 2026-05-06 07:32
Airport London Heathrow Airport (EGLL)

Arrival

Time N/A
Airport Newark Liberty International Airport (KEWR)
Time Latitude Longitude Altitude Speed Heading
2026-05-06 06:41 51.47191 -0.44410 90 ft 0 kts 89°
2026-05-06 07:18 51.47191 -0.44411 90 ft 1 kts 89°
2026-05-06 07:19 51.47191 -0.44450 94 ft 4 kts 89°
2026-05-06 07:19 51.47191 -0.44493 94 ft 3 kts 89°
2026-05-06 07:19 51.47192 -0.44527 93 ft 4 kts 112°
2026-05-06 07:19 51.47207 -0.44555 94 ft 4 kts 167°
2026-05-06 07:20 51.47231 -0.44558 92 ft 4 kts 179°
2026-05-06 07:20 51.47246 -0.44558 91 ft 0 kts 179°
2026-05-06 07:24 51.47244 -0.44558 90 ft 2 kts 179°
2026-05-06 07:24 51.47206 -0.44557 90 ft 9 kts 179°
2026-05-06 07:24 51.47145 -0.44557 90 ft 9 kts 180°
2026-05-06 07:24 51.47084 -0.44557 90 ft 9 kts 180°
2026-05-06 07:25 51.47024 -0.44556 90 ft 9 kts 179°
2026-05-06 07:25 51.46963 -0.44555 90 ft 9 kts 180°
2026-05-06 07:25 51.46902 -0.44555 90 ft 9 kts 179°
2026-05-06 07:25 51.46841 -0.44554 93 ft 9 kts 179°
2026-05-06 07:26 51.46779 -0.44554 93 ft 9 kts 180°
2026-05-06 07:26 51.46718 -0.44553 93 ft 9 kts 179°
2026-05-06 07:26 51.46670 -0.44597 93 ft 9 kts 248°
2026-05-06 07:26 51.46665 -0.44704 91 ft 11 kts 269°
2026-05-06 07:27 51.46664 -0.44849 91 ft 15 kts 269°
2026-05-06 07:27 51.46663 -0.45032 91 ft 18 kts 269°
2026-05-06 07:27 51.46662 -0.45248 91 ft 21 kts 269°
2026-05-06 07:27 51.46661 -0.45492 90 ft 23 kts 270°
2026-05-06 07:28 51.46660 -0.45759 94 ft 25 kts 270°
2026-05-06 07:28 51.46660 -0.46050 94 ft 27 kts 270°
2026-05-06 07:28 51.46658 -0.46673 94 ft 28 kts 269°
2026-05-06 07:29 51.46657 -0.46985 94 ft 28 kts 270°
2026-05-06 07:29 51.46656 -0.47298 93 ft 28 kts 270°
2026-05-06 07:29 51.46655 -0.47611 93 ft 28 kts 270°
2026-05-06 07:29 51.46654 -0.47916 90 ft 22 kts 269°
2026-05-06 07:30 51.46653 -0.48063 92 ft 11 kts 269°
2026-05-06 07:30 51.46650 -0.48176 93 ft 10 kts 257°
2026-05-06 07:30 51.46590 -0.48212 93 ft 10 kts 180°
2026-05-06 07:30 51.46519 -0.48211 92 ft 10 kts 179°
2026-05-06 07:31 51.46480 -0.48137 94 ft 10 kts 91°
2026-05-06 07:31 51.46481 -0.47890 91 ft 44 kts 90°
2026-05-06 07:31 51.46485 -0.47019 95 ft 112 kts 90°
2026-05-06 07:31 51.46488 -0.45438 116 ft 168 kts 87°
2026-05-06 07:32 51.46490 -0.43568 817 ft 167 kts 86°
2026-05-06 07:32 51.46303 -0.41727 1502 ft 175 kts 112°
2026-05-06 07:32 51.45424 -0.40214 1600 ft 203 kts 150°
2026-05-06 07:32 51.43994 -0.39786 1807 ft 223 kts 187°
2026-05-06 07:33 51.42531 -0.40748 2014 ft 234 kts 219°
2026-05-06 07:33 51.41256 -0.42436 2295 ft 246 kts 221°
2026-05-06 07:33 51.39898 -0.44253 2567 ft 261 kts 221°
2026-05-06 07:33 51.38480 -0.46143 3013 ft 269 kts 221°
2026-05-06 07:34 51.37025 -0.48071 3508 ft 274 kts 222°
2026-05-06 07:34 51.35838 -0.50386 3984 ft 272 kts 251°
2026-05-06 07:34 51.35662 -0.53276 4696 ft 259 kts 288°
2026-05-06 07:34 51.36410 -0.55762 5291 ft 250 kts 303°
2026-05-06 07:35 51.37150 -0.58345 5726 ft 258 kts 293°
2026-05-06 07:35 51.37730 -0.61030 6446 ft 257 kts 291°
2026-05-06 07:35 51.38277 -0.63766 7053 ft 261 kts 290°
2026-05-06 07:35 51.38825 -0.66570 7586 ft 266 kts 289°
2026-05-06 07:36 51.39186 -0.68441 7936 ft 268 kts 289°
2026-05-06 07:36 51.39736 -0.71319 8451 ft 272 kts 289°
2026-05-06 07:36 51.40290 -0.74231 8985 ft 276 kts 289°
2026-05-06 07:36 51.40849 -0.77191 9525 ft 279 kts 289°
2026-05-06 07:37 51.41415 -0.80196 10010 ft 283 kts 288°
2026-05-06 07:37 51.42187 -0.84305 10299 ft 303 kts 288°
2026-05-06 07:37 51.42810 -0.87632 10459 ft 322 kts 288°
2026-05-06 07:37 51.43250 -0.89991 10573 ft 335 kts 288°
2026-05-06 07:38 51.43937 -0.93673 10866 ft 351 kts 288°
2026-05-06 07:38 51.44646 -0.97493 11464 ft 360 kts 288°
2026-05-06 07:38 51.45351 -1.01303 12306 ft 363 kts 288°
2026-05-06 07:38 51.46070 -1.05196 13307 ft 366 kts 288°
2026-05-06 07:39 51.46777 -1.09015 14033 ft 373 kts 287°
2026-05-06 07:39 51.47182 -1.11210 14417 ft 376 kts 287°
2026-05-06 07:39 51.47927 -1.15256 15202 ft 380 kts 287°
2026-05-06 07:39 51.48576 -1.18495 15926 ft 378 kts 292°
2026-05-06 07:40 51.49788 -1.22218 16824 ft 379 kts 303°
2026-05-06 07:40 51.51440 -1.25553 17517 ft 386 kts 313°
2026-05-06 07:40 51.53346 -1.28387 18104 ft 393 kts 317°
2026-05-06 07:40 51.55386 -1.31353 18724 ft 399 kts 316°
2026-05-06 07:41 51.57429 -1.34401 19409 ft 400 kts 316°
2026-05-06 07:41 51.59403 -1.37558 20117 ft 401 kts 310°
2026-05-06 07:41 51.61140 -1.41084 20715 ft 405 kts 304°
2026-05-06 07:41 51.62665 -1.44922 21175 ft 411 kts 298°
2026-05-06 07:42 51.64002 -1.49033 21777 ft 415 kts 296°
2026-05-06 07:42 51.65333 -1.53164 22460 ft 416 kts 297°
2026-05-06 07:42 51.66686 -1.57305 23112 ft 419 kts 297°
2026-05-06 07:42 51.68037 -1.61411 23660 ft 424 kts 297°
2026-05-06 07:43 51.69315 -1.65710 24114 ft 427 kts 291°
2026-05-06 07:43 51.70255 -1.70269 24577 ft 430 kts 285°
2026-05-06 07:43 51.70914 -1.74988 25052 ft 434 kts 278°
2026-05-06 07:43 51.71263 -1.79822 25539 ft 436 kts 276°